Regional Weather Roundup
Issued by NWS

Home | Current Version | Previous Version | Text Only | Print | Product List | Glossary On
Versions: 1 2 3 4 5 6 7 8 9 10 11 12 13 14 15 16 17 18 19 20 21 22 23 24 25 26 27 28 29 30 31 32 33 34 35 36 37 38 39 40 41 42 43 44 45 46 47 48 49 50
515
ASUS44 KJAN 201810
RWRMS

MISSISSIPPI HOURLY WEATHER ROUNDUP
NATIONAL WEATHER SERVICE JACKSON MS
100 PM CDT SUN APR 20 2014

NOTE: "FAIR: INDICATES FEW OR NO CLOUDS BELOW 12,000 FEET WITH NO
SIGNIFICANT WEATHER AND/OR OBSTRUCTIONS TO VISIBILITY.

MSZ001>002-007>008-010>013-018>021-025>028-034>036-201900-
NORTHWEST MISSISSIPPI

CITY           SKY/WX    TMP DP  RH WIND       PRES   REMARKS
CLARKSDALE       N/A     77  50  38 SE3       30.18F
CLEVELAND      FAIR      77  52  42 S5        30.18F
GREENWOOD      MOSUNNY   77  50  38 SW3       30.18F
6HR MIN TEMP:  50; 6HR MAX TEMP:  77;

GREENVILLE     MOSUNNY   77  50  38 VRB6      30.17F
6HR MIN TEMP:  53; 6HR MAX TEMP:  78;

GRENADA        FAIR      75  52  43 SE3       30.19F
OLIVE BRANCH   MOSUNNY   75  48  38 S9        30.20F
OXFORD         FAIR      75  46  35 SW5       30.21F
TUNICA         CLEAR     77  48  36 SE6       30.18F
$$

MSZ003>006-009-014>017-022>024-029>033-037>039-201900-
NORTHEAST MISSISSIPPI

CITY           SKY/WX    TMP DP  RH WIND       PRES   REMARKS
BELMONT        FAIR      74  46  37 CALM      30.20F
COLUMBUS AFB   SUNNY     74  46  36 VRB2      30.20F
6HR MIN TEMP:  47; 6HR MAX TEMP:  74;

CORINTH        FAIR      75  45  33 CALM      30.20F
GOLDN TRIANGLE SUNNY     72  48  43 CALM      30.23F
STARKVILLE     FAIR      72  50  46 SE3       30.20F
TUPELO         SUNNY     74  49  41 S5        30.20F
6HR MIN TEMP:  50; 6HR MAX TEMP:  75;

$$

MSZ040-058-201900-
CENTRAL MISSISSIPPI

CITY           SKY/WX    TMP DP  RH WIND       PRES   REMARKS
JACKSON INTL   MOSUNNY   76  50  40 CALM      30.18F
6HR MIN TEMP:  50; 6HR MAX TEMP:  78;

JACKSON HAWKNS SUNNY     79  49  34 CALM      30.19F
6HR MIN TEMP:  52; 6HR MAX TEMP:  79;

MERIDIAN KEY   SUNNY     73  50  44 NE7       30.20F
6HR MIN TEMP:  48; 6HR MAX TEMP:  75;

MERIDIAN NAS   SUNNY     73  51  46 VRB5      30.21F
6HR MIN TEMP:  47; 6HR MAX TEMP:  73;

RAYMOND        FAIR      77  73  88 SE6       30.18F
VICKSBURG      SUNNY     79  52  38 NE6       30.17F
6HR MIN TEMP:  56; 6HR MAX TEMP:  79;

$$

MSZ059>079-201900-
SOUTH MISSISSIPPI

CITY           SKY/WX    TMP DP  RH WIND       PRES   REMARKS
BROOKHAVEN     FAIR      75  52  43 CALM      30.20F
COLUMBIA       FAIR      77  52  41 MISG      30.17F
HATTIESBURG    SUNNY     77  52  41 N9        30.18F
6HR MIN TEMP:  50; 6HR MAX TEMP:  77;

MCCOMB         SUNNY     77  47  34 CALM      30.18F
6HR MIN TEMP:  50; 6HR MAX TEMP:  78;

NATCHEZ        SUNNY     79  52  38 CALM      30.17F
6HR MIN TEMP:  52; 6HR MAX TEMP:  79;

PINE BELT      SUNNY     75  54  46 NE7       30.19F
6HR MIN TEMP:  52; 6HR MAX TEMP:  75;

$$

MSZ080>082-201900-
COASTAL MISSISSIPPI

CITY           SKY/WX    TMP DP  RH WIND       PRES   REMARKS
BAY ST LOUIS   SUNNY     79  48  34 N9        30.16F
BILOXI         SUNNY     77  52  42 NE14      30.16F
6HR MIN TEMP:  59; 6HR MAX TEMP:  77;

PASCAGOULA     SUNNY     77  54  44 NE9G18    30.16F
6HR MIN TEMP:  52; 6HR MAX TEMP:  77;

GULFPORT       SUNNY     81  52  36 N9        30.15F
6HR MIN TEMP:  60; 6HR MAX TEMP:  81;

$$



USA.gov is the U.S. government's official web portal to all federal, state and local government web resources and services.